Location: Pel�-Koumbol�
(14.9505°N, 3.0798°W)
Time: 10:15:26
(UTC+00:00)

STARLINK-1044 - Pass Details

Date: 17 February 2020
Orbit: 548 x 551 km, 53.0° (Epoch: 29 March)

Event Time Altitude Azimuth Distance (km) Brightness Sun altitude
Exits shadow 05:52:57 12° 308° (NW) 1,668 5.5 -11.0°
Maximum altitude 05:56:30 46° 236° (SW) 741 4.0 -10.2°
Drops below altitude 10° 06:00:28 10° 162° (SSE) 1,814 6.7 -9.3°
Sets 06:02:46 0° 156° (SSE) 2,706 7.7 -8.7°
